Regional Weather Roundup
Issued by NWS

Home | Current Version | Previous Version | Text Only | Print | Product List | Glossary On
Versions: 1 2 3 4 5 6 7 8 9 10 11 12 13 14 15 16 17 18 19 20 21 22 23 24 25 26 27 28 29 30 31 32 33 34 35 36 37 38 39 40 41 42 43 44 45 46 47 48 49 50
000
ASUS43 KOAX 210402
RWRNE

WEATHER ROUNDUP FOR NEBRASKA
NATIONAL WEATHER SERVICE OMAHA NE
1000 PM CST MON FEB 20 2017

NOTES: SATELLITE DATA IS BEING USED TO AUGMENT CLOUD COVER ABOVE
       12000 FEET.
       "FAIR" INDICATES FEW OR NO CLOUDS BELOW 12,000 FEET WITH NO
       SIGNIFICANT WEATHER AND/OR OBSTRUCTIONS TO VISIBILITY.

  * THESE STATIONS DO NOT REPORT WEATHER SUCH AS RAIN...SNOW OR FOG.

NEZ001>004-019>022-054>056-210500-
NEBRASKA PANHANDLE

CITY           SKY/WX    TMP DP  RH WIND       PRES   REMARKS
SCOTTSBLUFF    PTCLDY    40  24  53 SE3       29.93F
ALLIANCE       CLEAR     37  26  64 W8        29.92S WCI  31
CHADRON        CLOUDY    50  30  46 W8        29.87S
KIMBALL        CLOUDY    37  21  52 SW6       29.98S WCI  32
SIDNEY         CLEAR     31  19  61 SW7       29.98F WCI  24
$$

NEZ057>060-069>072-079>082-210500-
SOUTHWEST NEBRASKA

CITY           SKY/WX    TMP DP  RH WIND       PRES   REMARKS
NORTH PLATTE   CLEAR     34  24  67 E3        29.96F
IMPERIAL       CLEAR     41  17  38 S5        29.99F
LEXINGTON      CLEAR     38  28  66 SE3       29.98S
MCCOOK         CLEAR     37  23  56 SW9       29.99S WCI  30
OGALLALA       CLEAR     32  20  60 W5        29.97F WCI  27
$$

NEZ005>010-023>029-035>040-094-210500-
NORTH CENTRAL NEBRASKA

CITY           SKY/WX    TMP DP  RH WIND       PRES   REMARKS
VALENTINE      CLEAR     36  25  64 SW5       29.88F WCI  32
AINSWORTH      CLEAR     35  30  81 S9        29.89F WCI  28
BROKEN BOW     CLEAR     31  27  85 CALM      29.95S
O`NEILL        CLEAR     39  32  76 SW6       29.92S WCI  34
ORD            CLEAR     33  27  78 SW5       29.94R WCI  29
THEDFORD       CLEAR     45  27  49 S9        29.93S
$$

NEZ041-046>049-061>064-073>077-083>087-210500-
SOUTH CENTRAL NEBRASKA

CITY           SKY/WX    TMP DP  RH WIND       PRES   REMARKS
GRAND ISLAND   CLEAR     40  35  83 SW3       29.97S
AURORA         CLEAR     37  34  90 SW5       29.96S WCI  33
HASTINGS       CLEAR     41  33  73 SW6       29.98S
HEBRON         CLEAR     44  37  77 CALM      29.97F
HOLDREGE       CLEAR     37  28  69 CALM      29.99R
KEARNEY *      CLEAR     39  30  70 CALM      29.99R
YORK           CLEAR     39  37  93 SW3       29.97R
$$

NEZ011>018-030>034-042>045-210500-
NORTHEAST NEBRASKA

CITY           SKY/WX    TMP DP  RH WIND       PRES   REMARKS
NORFOLK        CLEAR     36  33  89 CALM      29.93R
ALBION         CLEAR     37  32  82 CALM      29.95S
BLAIR          CLEAR     44  40  85 NW5       29.93F
FREMONT        CLEAR     40  39  96 CALM      29.94F
TEKAMAH        CLEAR     40  37  89 SW6       29.94R
WAYNE          CLEAR     34  33  97 S5        29.93S WCI  30
$$

NEZ050>053-065>068-078-088>093-210500-
SOUTHEAST NEBRASKA

CITY           SKY/WX    TMP DP  RH WIND       PRES   REMARKS
LINCOLN        CLEAR     45  39  79 W5        29.97S
OMAHA EPPLEY   PTCLDY    45  39  79 E3        29.94S
BEATRICE       CLEAR     43  39  86 CALM      29.97R
FALLS CITY     CLOUDY    55  49  80 NW7       29.93S
NEBRASKA CITY  CLEAR     49  41  73 NW8       29.95S
PLATTSMOUTH    CLEAR     45  39  79 NW5       29.95R
$$

NEZ044-045-051>053-067-210500-
OMAHA AREA

CITY           SKY/WX    TMP DP  RH WIND       PRES   REMARKS
OMAHA EPPLEY   PTCLDY    45  39  79 E3        29.94S
BLAIR          CLEAR     44  40  85 NW5       29.93F
FREMONT        CLEAR     40  39  96 CALM      29.94F
MILLARD        CLEAR     48  43  84 CALM      29.94F
OFFUTT AFB     CLEAR     51  43  75 SE3       29.95S
PLATTSMOUTH    CLEAR     45  39  79 NW5       29.95R
WAHOO          FAIR      42  39  88 CALM      29.95S
$$




USA.gov is the U.S. government's official web portal to all federal, state and local government web resources and services.